[[{"header":{"parameterUnit":"m.s-1","parameterCategory":1,"la1":30.2991,"la2":30.254,"lo1":-89.0895,"lo2":-89.0444,"dy":0.0017,"dx":0.0017,"nx":28,"ny":28,"refTime":"2024-07-01T21:00:00:Z","depth":0,"parameterNumber":2,"parameterNumberName":"U-component_of_WINDS"},"data":[0,0,0,0,0,0,0,0,0,0,0,0,0,0,0,0,0,0,0,0,0,0,0,0,0,0,0,0,0,0,0,0,0,0,0,0,0,0,0,0,0,0,0,0,0,0,0,0,0,0,0,0,0,0,0,0,0,0,1.785,1.7851,0,1.7961,1.7962,1.7963,1.7942,1.794,1.7938,1.7936,1.8059,1.8064,1.8069,0,0,0,0,0,0,0,0,0,0,0,0,0,1.7628,1.7632,1.785,1.7851,1.7853,1.796,1.7962,1.7963,1.7942,1.794,1.7937,1.7935,1.8057,1.8063,1.8069,0,0,0,0,0,0,0,0,0,0,0,0,0,1.7731,1.7634,1.785,1.7855,1.7856,1.796,1.7962,1.7964,1.7943,1.794,1.7937,1.7934,1.8055,1.8063,1.807,1.8179,0,0,1.8094,1.8097,0,0,0,0,0,0,0,0,1.7725,1.7739,1.7853,1.7855,1.7857,1.7934,1.7929,1.8036,1.7944,1.791,1.7936,1.7932,1.802,1.8031,1.8059,1.8184,1.819,1.8095,1.8099,1.8103,1.8105,0,0,0,0,0,0,0,1.7718,1.7734,1.7894,1.7854,1.7857,1.7854,1.7865,1.7949,1.7981,1.7913,1.7912,1.7925,1.8021,1.8051,1.8061,1.8191,1.8094,1.8101,1.8106,1.8109,1.8409,1.8412,0,0,0,0,0,0,1.7708,1.7728,1.789,1.7897,1.7781,1.7861,1.7873,1.7912,1.798,1.7987,1.7927,1.7923,1.8039,1.8052,1.8066,1.8193,1.8102,1.811,1.8114,1.8406,1.841,1.8413,0,0,0,0,0,0,1.7703,1.7722,1.7886,1.7812,1.7833,1.7868,1.7912,1.7916,1.7946,1.7991,1.7997,1.7951,1.8038,1.8055,1.8149,1.8198,1.8113,1.812,1.8402,1.8407,1.8412,1.8452,0,0,0,0,0,0,1.7697,1.7721,1.776,1.7813,1.7837,1.7965,1.7915,1.7921,1.7958,1.7954,1.8015,1.8022,1.8036,1.8138,1.8157,1.8207,1.8126,1.8398,1.8404,1.841,1.8447,1.8458,1.8468,0,0,0,0,0,1.7689,1.777,1.7762,1.7782,1.7886,1.7968,1.7982,1.7993,1.7962,1.8003,1.8032,1.802,1.819,1.8148,1.8169,1.8222,1.8395,1.8402,1.841,1.8442,1.8456,1.8468,0,0,0,0,0,0,1.7725,1.7777,1.7769,1.7869,1.7914,1.7964,1.8016,1.8008,1.8065,1.806,1.8075,1.8089,1.8184,1.8214,1.8165,1.8329,1.8288,1.83,1.8306,1.8319,1.8329,1.8319,1.8133,0,0,0,0,0,1.7744,1.7804,1.7847,1.7932,1.7954,1.7981,1.8018,1.8022,1.8071,1.809,1.8126,1.8176,1.824,1.8282,1.8344,1.8452,1.8464,1.8499,1.851,1.8518,1.8528,1.8585,1.86,1.8438,1.8438,1.8438,0,0,1.7786,1.7821,1.7858,1.794,1.7975,1.8037,1.7997,1.8066,1.8113,1.8102,1.8191,1.8219,1.8276,1.8377,1.8424,1.8404,1.8575,1.8528,1.8534,1.8539,1.8594,1.8609,1.8623,1.8443,1.8442,1.8441,0,0,1.7891,1.7925,1.7997,1.8032,1.8085,1.8102,1.812,1.8171,1.8188,1.8278,1.827,1.8328,1.8439,1.8478,1.8513,1.8633,1.8624,1.8654,1.8707,1.8763,1.8775,1.8787,1.8827,1.8841,1.8664,1.8664,1.8664,0,1.7936,1.8027,1.8036,1.8104,1.814,1.813,1.8203,1.8239,1.831,1.8336,1.8313,1.845,1.8488,1.8596,1.8625,1.8655,1.8675,1.8645,1.8772,1.8784,1.8795,1.8833,1.8848,1.8667,1.8666,1.8666,1.8666,0,1.8078,1.8142,1.8195,1.8259,1.8301,1.8372,1.8394,1.8436,1.8438,1.8459,1.855,1.8595,1.8664,1.8691,1.8696,1.88,1.8786,1.8768,1.8727,1.8813,1.8849,1.8864,1.8671,1.867,1.8669,1.8668,0,0,1.8208,1.8275,1.8294,1.8322,1.8379,1.843,1.8501,1.8565,1.86,1.8651,1.871,1.8804,1.8786,1.8826,1.8835,1.8884,1.8973,1.886,1.8862,1.8876,1.9088,1.9098,1.9115,1.8968,1.8971,1.8974,1.9082,0,1.8316,1.8436,1.8446,1.8556,1.8614,1.8606,1.8668,1.8711,1.8732,1.8787,1.8813,1.8877,1.8851,1.8874,1.8922,1.8951,1.9015,1.8944,1.9024,1.9027,1.9005,1.9134,1.9146,1.9246,1.9097,1.9099,1.9101,0,1.8457,1.8506,1.862,1.8667,1.8692,1.8747,1.8805,1.8858,1.8907,1.892,1.8963,1.8965,1.904,1.8998,1.9101,1.9052,1.9086,1.9106,1.911,1.9115,1.9066,1.914,1.9279,1.9292,1.9124,1.9122,1.912,0,1.8535,1.8632,1.8711,1.8736,1.8794,1.8832,1.8859,1.8905,1.8942,1.8995,1.902,1.9083,1.9116,1.9166,1.9185,1.9153,1.9287,1.9247,1.9299,1.9298,1.9325,1.9322,1.9467,1.9353,1.9352,1.9352,1.9352,0,1.8652,1.8721,1.8746,1.8795,1.8873,1.8886,1.8963,1.8989,1.9029,1.9084,1.9084,1.9136,1.916,1.9217,1.9233,1.9315,1.9332,1.9344,1.9346,1.9341,1.9339,1.9361,1.9354,1.9356,1.9355,1.9355,1.9354,0,1.875,1.877,1.8856,1.8903,1.8917,1.8971,1.9013,1.9061,1.9082,1.9151,1.9168,1.9202,1.9268,1.9293,1.9376,1.9387,1.948,1.948,1.9462,1.9462,1.951,1.9504,1.9672,1.9694,1.9568,1.9569,1.957,0,1.8821,1.8874,1.8925,1.896,1.8986,1.9044,1.9081,1.9097,1.9136,1.9195,1.9236,1.9301,1.9353,1.9461,1.9494,1.9557,1.9556,1.961,1.9565,1.9557,1.9552,1.9547,1.9551,1.9617,1.9619,1.962,1.9621,0,1.8944,1.8951,1.9003,1.9058,1.9101,1.9147,1.9191,1.922,1.9243,1.9288,1.9353,1.9393,1.9475,1.954,1.9604,1.9634,1.9631,1.9635,1.9649,1.9643,1.9629,1.9633,1.948,1.963,1.9629,1.9628,1.9628,1.9628,1.9029,1.9074,1.9116,1.9174,1.9208,1.9249,1.9295,1.932,1.9374,1.9439,1.9447,1.9517,1.9566,1.965,1.9683,1.974,1.9725,1.9748,1.9753,1.9757,1.9758,1.9622,1.9753,1.9752,1.9752,1.9752,1.9752,0,1.9148,1.9175,1.9228,1.9287,1.9332,1.9324,1.9372,1.9411,1.9471,1.9515,1.9566,1.9641,1.9704,1.9742,1.9805,1.9843,1.9843,1.9858,1.9854,1.9861,1.977,1.9748,1.9857,1.9857,1.9857,1.9857,1.9857,1.9857,1.9215,1.929,1.9302,1.9394,1.9421,1.9487,1.9515,1.9553,1.9587,1.967,1.972,1.9744,1.9785,1.9851,1.9909,1.9918,1.9941,1.9957,1.9965,1.9879,1.9867,1.9857,1.9837,1.9962,1.9962,2.0051,2.0052,2.0052]},{"header":{"parameterUnit":"m.s-1","parameterCategory":1,"la1":30.2991,"la2":30.254,"lo1":-89.0895,"lo2":-89.0444,"dy":0.0017,"dx":0.0017,"nx":28,"ny":28,"refTime":"2024-07-01T21:00:00:Z","depth":0,"parameterNumber":3,"parameterNumberName":"V-component_of_WINDS"},"data":[0,0,0,0,0,0,0,0,0,0,0,0,0,0,0,0,0,0,0,0,0,0,0,0,0,0,0,0,0,0,0,0,0,0,0,0,0,0,0,0,0,0,0,0,0,0,0,0,0,0,0,0,0,0,0,0,0,0,1.8107,1.8107,0,1.8076,1.8076,1.8076,1.8044,1.8044,1.8043,1.8043,1.801,1.801,1.8009,0,0,0,0,0,0,0,0,0,0,0,0,0,1.8137,1.8137,1.8107,1.8107,1.8106,1.8076,1.8076,1.8075,1.8044,1.8044,1.8043,1.8043,1.801,1.801,1.8009,0,0,0,0,0,0,0,0,0,0,0,0,0,1.8117,1.8137,1.8107,1.8087,1.8085,1.8076,1.8076,1.8075,1.8044,1.8044,1.8043,1.8042,1.8011,1.801,1.8009,1.8017,0,0,1.8007,1.8007,0,0,0,0,0,0,0,0,1.8118,1.8116,1.809,1.8088,1.8086,1.8063,1.8075,1.8056,1.8044,1.806,1.8043,1.8042,1.8028,1.8026,1.8022,1.8016,1.8015,1.8007,1.8006,1.8006,1.8006,0,0,0,0,0,0,0,1.812,1.8117,1.8095,1.809,1.8087,1.8079,1.8076,1.8071,1.8048,1.8058,1.8056,1.8053,1.8027,1.8022,1.8021,1.8014,1.8007,1.8006,1.8006,1.8006,1.8012,1.8013,0,0,0,0,0,0,1.8124,1.8119,1.8096,1.8094,1.8101,1.8079,1.8075,1.8071,1.8048,1.8044,1.8053,1.8051,1.8024,1.8022,1.8019,1.8027,1.8006,1.8005,1.8005,1.8012,1.8013,1.8013,0,0,0,0,0,0,1.8125,1.8123,1.8097,1.8106,1.8102,1.8079,1.8075,1.8071,1.8066,1.8044,1.804,1.8053,1.8023,1.802,1.8018,1.8025,1.8005,1.8005,1.8011,1.8012,1.8013,1.8042,0,0,0,0,0,0,1.8126,1.8123,1.8126,1.8106,1.8101,1.8097,1.8076,1.8071,1.8065,1.8063,1.8043,1.8039,1.8023,1.8019,1.8017,1.8024,1.8004,1.801,1.8012,1.8013,1.804,1.8044,1.8047,0,0,0,0,0,1.8127,1.8136,1.8127,1.8124,1.8105,1.8097,1.8094,1.8076,1.8066,1.8069,1.8055,1.8039,1.8025,1.8019,1.8017,1.8023,1.801,1.8011,1.8013,1.8039,1.8043,1.8046,0,0,0,0,0,0,1.8157,1.8132,1.8122,1.8124,1.8113,1.8092,1.8094,1.8081,1.8072,1.807,1.8047,1.8043,1.8043,1.8033,1.8027,1.8029,1.8015,1.8016,1.8036,1.804,1.8043,1.8045,1.8003,0,0,0,0,0,1.8164,1.816,1.8139,1.8142,1.8137,1.8117,1.8113,1.81,1.8087,1.8082,1.8067,1.8055,1.8048,1.8043,1.8036,1.8039,1.8033,1.8042,1.8045,1.8048,1.8049,1.8049,1.8052,1.8018,1.8018,1.8018,0,0,1.8177,1.8164,1.8162,1.8148,1.8137,1.8133,1.8113,1.811,1.8106,1.8081,1.8078,1.8067,1.8052,1.8052,1.8052,1.8044,1.8057,1.805,1.8052,1.8051,1.805,1.8054,1.8057,1.8019,1.8019,1.8018,0,0,1.82,1.819,1.8191,1.8182,1.8167,1.8153,1.8154,1.8134,1.8126,1.8123,1.8104,1.8099,1.8087,1.8077,1.807,1.809,1.8075,1.8088,1.8104,1.8104,1.8107,1.8109,1.8115,1.8117,1.8089,1.8089,1.8089,0,1.8219,1.8212,1.8194,1.8191,1.8185,1.8163,1.8164,1.8155,1.8138,1.8134,1.8126,1.811,1.8099,1.8096,1.8101,1.8096,1.8095,1.8089,1.8108,1.811,1.8112,1.8117,1.812,1.809,1.809,1.809,1.809,0,1.8235,1.8231,1.8234,1.8218,1.8213,1.8212,1.8193,1.8189,1.8177,1.8165,1.8161,1.8146,1.8135,1.8133,1.8121,1.8129,1.8124,1.8113,1.8097,1.8117,1.8122,1.8123,1.8093,1.8092,1.8091,1.8091,0,0,1.8274,1.8249,1.825,1.8243,1.8225,1.8221,1.8219,1.8208,1.8205,1.8194,1.8192,1.8182,1.8171,1.8164,1.815,1.8151,1.8166,1.8139,1.8138,1.8143,1.8171,1.8179,1.8182,1.8156,1.8157,1.8157,1.8172,0,1.8293,1.8288,1.8272,1.8272,1.8268,1.8247,1.8246,1.8234,1.8222,1.8216,1.8203,1.8197,1.8183,1.8178,1.8178,1.8164,1.8171,1.8163,1.8152,1.8152,1.8156,1.8185,1.8193,1.8208,1.8174,1.8174,1.8175,0,1.8313,1.8304,1.8304,1.8286,1.8283,1.8282,1.8271,1.8266,1.8252,1.8244,1.8236,1.8221,1.8217,1.8204,1.8198,1.8193,1.8188,1.8181,1.8181,1.8178,1.8164,1.8181,1.8213,1.8214,1.8177,1.8177,1.8177,0,1.834,1.8328,1.8326,1.832,1.83,1.8299,1.8291,1.8277,1.8271,1.8261,1.8257,1.8247,1.8241,1.8233,1.8215,1.8208,1.8211,1.8197,1.8203,1.8203,1.8203,1.8203,1.8233,1.8202,1.8202,1.8202,1.8202,0,1.8361,1.8361,1.8338,1.8336,1.8336,1.8318,1.8318,1.8307,1.8295,1.8291,1.8273,1.8269,1.8247,1.8241,1.8227,1.8224,1.8222,1.8214,1.821,1.8215,1.8216,1.821,1.8208,1.8203,1.8203,1.8203,1.8203,0,1.839,1.8374,1.8371,1.8352,1.8347,1.8348,1.8331,1.8329,1.8317,1.8312,1.831,1.829,1.8282,1.8264,1.8251,1.8242,1.8241,1.8235,1.8246,1.8243,1.825,1.8249,1.8276,1.8278,1.8247,1.8248,1.8248,0,1.8404,1.8404,1.8385,1.8381,1.8374,1.8368,1.8362,1.8344,1.8339,1.8324,1.8323,1.8314,1.8305,1.8292,1.8277,1.8266,1.8259,1.8269,1.8257,1.8262,1.8258,1.8257,1.8257,1.8271,1.8272,1.8272,1.8273,0,1.8429,1.8422,1.8415,1.8405,1.8399,1.839,1.8381,1.8379,1.8358,1.8353,1.8345,1.8338,1.8325,1.8315,1.8303,1.8293,1.8279,1.8277,1.8277,1.8281,1.8287,1.8283,1.8252,1.8276,1.8275,1.8275,1.8275,1.8275,1.845,1.8449,1.8436,1.8428,1.842,1.8411,1.8408,1.8396,1.8389,1.8377,1.8367,1.8359,1.8345,1.8327,1.8318,1.8312,1.8305,1.8306,1.8306,1.8306,1.8308,1.829,1.831,1.8309,1.8309,1.8309,1.8309,0,1.8474,1.8465,1.8458,1.8446,1.844,1.8429,1.8417,1.8413,1.8407,1.8396,1.8388,1.8378,1.8369,1.8353,1.8342,1.8339,1.8333,1.8337,1.8336,1.8334,1.8315,1.8315,1.8343,1.8343,1.8343,1.8343,1.8343,1.8343,1.8485,1.8483,1.8474,1.8466,1.8457,1.845,1.8444,1.8436,1.8427,1.8417,1.841,1.84,1.8386,1.8375,1.8365,1.8361,1.8357,1.8363,1.8357,1.8339,1.8336,1.8333,1.8332,1.8363,1.8363,1.8376,1.8376,1.8376]}]]